Regional Weather Roundup
Issued by NWS

Home | Current Version | Previous Version | Text Only | Print | Product List | Glossary On
Versions: 1 2 3 4 5 6 7 8 9 10 11 12 13 14 15 16 17 18 19 20 21 22 23 24 25 26 27 28 29 30 31 32 33 34 35 36 37 38 39 40 41 42 43 44 45 46 47 48 49 50
000
ASUS44 KLUB 200810
RWRTX
WEST TEXAS WEATHER ROUNDUP
NATIONAL WEATHER SERVICE LUBBOCK TX
300 AM CDT MON OCT 20 2014

NOTE: "FAIR" INDICATES FEW OR NO CLOUDS BELOW 12,000 FEET WITH NO
SIGNIFICANT WEATHER AND/OR OBSTRUCTIONS TO VISIBILITY.

TXZ004-006>008-010-012-014-016-OKZ002-200900-
TEXAS PANHANDLE/OKLAHOMA PANHANDLE

CITY           SKY/WX    TMP DP  RH WIND       PRES   REMARKS
AMARILLO       CLEAR     57  55  93 SW8       30.09F
BORGER         CLEAR     59  55  87 SW6       30.07S
CANADIAN       PTCLDY    57  56  96 CALM      30.04R
DALHART        CLEAR     48  45  89 SW8       30.11R
DUMAS          CLEAR     55  53  92 SW10      30.08S
GUYMON         CLEAR     52  47  83 CALM      30.04S
HEREFORD       CLEAR     56  56  97 MISG      30.12S
PAMPA          CLEAR     59  57  92 SW9       30.08S
PERRYTON       CLEAR     57  54  89 SW3       30.05R
$$

TXZ026-029-035-045-048-200900-
SOUTHERN PANHANDLE/SOUTH PLAINS/ROLLING PLAINS

CITY           SKY/WX    TMP DP  RH WIND       PRES   REMARKS
CHILDRESS      CLEAR     60  57  89 S8        30.06R
SEMINOLE       CLEAR     55  53  93 CALM      30.09F
LUBBOCK        PTCLDY    57  54  89 SE3       30.08F
PLAINVIEW      FOG       50  49  97 CALM      30.08S VSB 1/4
SNYDER         PTCLDY    61  56  84 SE8       30.07S
$$

TXZ052-054-060>062-072-078-127-140-154-169-200900-
PERMIAN BASIN/CONCHO VALLEY/BIG COUNTRY/EDWARDS PLATEAU

CITY           SKY/WX    TMP DP  RH WIND       PRES   REMARKS
ABILENE        PTCLDY    65  59  81 S13       30.06S
BIG SPRING     CLEAR     61  56  84 SE7       30.09S
BRADY          CLEAR     61  61 100 SE3       30.06S
BROWNWOOD      PTCLDY    59  59 100 CALM      30.06S
JUNCTION       CLEAR     60  56  86 E3        30.05F
MIDLAND        CLEAR     61  57  87 E5        30.06F
ODESSA         CLEAR     59  55  87 E6        30.06F
SAN ANGELO     PTCLDY    59  53  80 E8        30.05S
SONORA         CLEAR     63  54  72 CALM      30.09S
SWEETWATER     PTCLDY    64  59  82 S12       30.09F
WINK           PTCLDY    62  57  83 E6        30.03S
$$

TXZ055-058-074-075-080-082-200900-
FAR WEST/SOUTHWEST MOUNTAINS/TRANS PECOS

CITY           SKY/WX    TMP DP  RH WIND       PRES   REMARKS
ALPINE         CLEAR     59  54  82 S8        30.12R
DRYDEN           N/A     64  62  93 NE8       29.99S
EL PASO        CLOUDY    61  54  77 N3        30.08S
FORT STOCKTON  CLEAR     65  57  75 SE10      30.04R
GUADALUPE PASS CLOUDY    56  54  93 SW3       30.16R
MARFA          PTCLDY    57  52  82 W7        30.14R
PECOS          PTCLDY    61  56  85 E7        30.02F
PRESIDIO       LGT RAIN  67  58  72 MISG      30.02R
$$

TXZ014-016-019-021>030-083-200900
TEXAS TECH WEST TEXAS MESONET/TEXAS PANHANDLE/NORTHERN SOUTH PLAINS

CITY           SKY/WX    TMP DP  RH WIND       PRES   REMARKS
ABERNATHY 5ENE   N/A     54  53  96 SW2       30.11R
AMARILLO 9NNE    N/A     60  57  90 S9        30.08S
AMARILLO 7SSE    N/A     51  51  99 W1        30.11S
AMHERST 1NE      N/A     53  52  99 SW3       30.10F
BOOTLEG 11WNW    N/A     53  52  96 SW8       30.15R
CANADIAN 6E      N/A     60  57  90 S2        30.03S
CAPROCK CYN SP   N/A     62  58  85 SW7       30.08S
CHILDRESS 2NNE   N/A     60  58  90 S9        30.04S
CLARENDON 2WSW   N/A     57  54  91 W3        30.08R
CLAUDE 12SW      N/A     61  58  90 S6        30.10S
DIMMITT 2NE      N/A     57  55  93 S12       30.11S
FLOYDADA 2NNE    N/A     53  52  95 W1        30.09S
FRIONA 2NE       N/A     54  53  95 SW7       30.12F
GOODLETT 3W      N/A     59  56  87 S5        30.04R
HART 3N          N/A     50  49  97 W5        30.10F
HEREFORD 2NW     N/A     52  50  92 W5        30.11S
MCLEAN 1E        N/A     57  55  93 S6        30.06S
MEMPHIS 1NE      N/A     55  52  92 NW2       30.05S
MULESHOE 2SSW    N/A     51  51  97 W3        30.11S
OLTON 6S         N/A     52  51  95 SW6       30.09F
PALO DURO SP     N/A     59  56  91 S6        30.11S
PAMPA 2E         N/A     59  56  91 SW8       30.07S
PLAINVIEW 1S     N/A     51  51  99 CALM      30.09S
SILVERTON 7ESE   N/A     52  51  95 SW7       30.09S
TULIA 2ENE       N/A     53  53  98 SW6       30.10F
TURKEY 2WSW      N/A     58  56  94 W8        30.06S
UMBARGER 3NNE    N/A     53  53  97 SW7       30.11S
$$

TXZ033>036-039>041-045>048-200900
TEXAS TECH WEST TEXAS MESONET/SOUTH PLAINS

CITY           SKY/WX    TMP DP  RH WIND       PRES   REMARKS
AIKEN 3WSW       N/A     53  53  99 SW5       30.10F
ANDREWS 2NE      N/A     57  54  88 SE5       30.07F
ANTON 6SSW       N/A     54  53  96 NW2       30.10S
BROWNFIELD 2S    N/A     55  53  93 SW6       30.09S
DENVR CTY 7WNW   N/A     54  53  94 SE1       30.09F
GAIL 2ESE        N/A     58  55  89 S6        30.06F
LAMESA 2SE       N/A     55  53  93 S5        30.09S
LEVELLAND 4S     N/A     52  50  92 SW6       30.09F
LUBBOCK 3WNW     N/A     57  53  88 S1        30.09S
MORTON 1ENE      N/A     52  52  99 SW2       30.11S
ODONNELL 1N      N/A     59  55  85 S5        30.08S
PLAINS 3N        N/A     55  53  93 SE3       30.10F
RALLS 1SE        N/A     56  54  92 S5        30.09S
REESE CENTER     N/A     56  54  93 CALM      30.09S
SEMINOLE 2NNE    N/A     55  53  91 NE2       30.08F
SLATON 2NE       N/A     57  54  90 S3        30.09S
SNYDER 3E        N/A     61  57  86 SE8       30.06S
SUNDOWN 8SW      N/A     53  52  96 S6        30.10S
TAHOKA 3NNE      N/A     56  54  92 SW5       30.08S
WOLFFORTH 6SSW   N/A     56  55  97 SW3       30.09S
$$

TXZ031-032-036>038-042>044-200900-
TEXAS TECH WEST TEXAS MESONET/ROLLING PLAINS

CITY           SKY/WX    TMP DP  RH WIND       PRES   REMARKS
ASPERMONT 3NE    N/A     61  57  87 SE3       30.05S
FLUVANNA 3WNW    N/A     60  55  82 SE9       30.06F
GRAHAM 5SSW      N/A     60  55  83 CALM      30.08R
GUTHRIE 10WSW    N/A     60  56  87 S8        30.04F
HASKELL 1NW      N/A     63  58  82 SE6       30.05R
JAYTON 1SSE      N/A     60  56  87 S6        30.05S
KNOX CITY 3NW    N/A     63  58  83 S3        30.05S
LK A HENRY 1NW   N/A     63  56  80 S6        30.06R
NORTHFIELD 1S    N/A     59  58  96 S3        30.05S
ODELL 4ENE       N/A     62  59  89 SE8       30.05R
PADUCAH 10SW     N/A     58  56  90 S6        30.05S
POST 1NE         N/A     60  55  83 S2        30.07R
RRING SPRGS 3N   N/A     58  56  94 S7        30.07S
SEYMOUR 3NW      N/A     63  59  86 S5        30.04S
SPUR 1W          N/A     56  53  88 CALM      30.05S
WEINERT 2NNE     N/A     62  59  91 S5        30.05S
WHITE RVR 6NE    N/A     60  56  84 S5        30.07S
$$

TXZ052-054-060>062-072-078-127-140-154-169-200900-
TEXAS TECH WEST TEXAS MESONET/PERMIAN BASIN/
CONCHO VALLEY/BIG COUNTRY/EDWARDS PLATEAU

CITY           SKY/WX    TMP DP  RH WIND       PRES   REMARKS
COYANOSA 2N      N/A     60  56  86 E5        30.03S
JUNCTION 1SSW    N/A     56  54  93 SE1       30.06S
MERTZON 3NNE     N/A     56  54  93 CALM      30.07S
SAN ANGELO 7NW   N/A     61  54  76 E6        30.06S
STRLNG CT 4WSW   N/A     55  52  89 SE1       30.07S
ST LAWRNCE 5SW   N/A     57  56  98 E7        30.06F
SWEETWATR 11SW   N/A     63  58  84 SE12      30.08S
WALL 1E          N/A     61  55  81 E7        30.06S
$$

TXZ055-058-074-075-080-082-200900-
TEXAS TECH WEST TEXAS MESONET/FAR WEST/SOUTHWEST MOUNTAINS/TRANS PECOS

CITY           SKY/WX    TMP DP  RH WIND       PRES   REMARKS
PRSMN GAP BBNP   N/A     66  58  75 N12       30.00F
GUADLPE MTN NP   N/A     56  54  94 S5        30.16S
$$



USA.gov is the U.S. government's official web portal to all federal, state and local government web resources and services.